Date String (YYYY-MM-DD hh:mm:ss) UTC,Instrument flags,absolute air pressure of the measurement (hPa),sample flow rate (lpm),inlet stack bypass flow (lpm),air temperature of the measurement (°C),ambient temperature measured by the external sensor (°C),aerosol sample conditioner tube jacket temperature (°C),OPC LED temperature (°C),internal box temperature (°C),relative humidity of the measurement (%),span deviation,mass concentration of particles derived from Lorenz-Mie calculation of OPC scattering (μg/m³),mass concentration of particles derived from Lorenz-Mie calculation of OPC scattering (μg/m³),mass concentration of particles derived from Lorenz-Mie calculation of OPC scattering (μg/m³)
DateTimeUTC,F1_M11,P_M11,Q1_M11,Q2_M11,T1_M11,T2_M11,T3_M11,T4_M11,T5_M11,U1_M11,ZSPAN_M11,X2_M11,X0_M11,X1_M11
2023-06-22 12:00:00,SystemResetWarning,0833.2,5.00,000.00,030.2,028.6,000.0,038.8,031.6,31.0,0000.6,0004.29,0009.27,0003.62
2023-06-22 12:01:00,SystemResetWarning,0833.3,5.00,000.00,030.2,028.6,000.0,038.8,031.6,31.0,0000.7,0004.28,0009.28,0003.61
2023-06-22 12:02:00,SystemResetWarning,0833.3,5.00,000.00,030.2,028.6,000.0,038.8,031.6,30.7,0000.3,0004.28,0009.17,0003.62
2023-06-22 12:03:00,SystemResetWarning,0833.2,5.00,000.00,030.2,028.6,000.0,038.8,031.6,30.3,0000.0,0004.26,0008.96,0003.64
2023-06-22 12:04:00,SystemResetWarning,0833.2,5.00,000.00,030.2,028.6,000.0,038.8,031.5,29.8,-000.0,0004.24,0008.81,0003.64
2023-06-22 12:05:00,SystemResetWarning,0833.2,5.00,000.00,030.1,028.6,000.0,038.8,031.5,29.8,-000.1,0004.17,0008.46,0003.63
2023-06-22 12:06:00,SystemResetWarning,0833.2,5.00,000.00,030.1,028.6,000.0,038.8,031.5,30.1,-000.4,0004.12,0008.32,0003.62
2023-06-22 12:07:00,SystemResetWarning,0833.2,4.99,000.00,030.1,028.5,000.0,038.8,031.5,29.9,-000.2,0004.05,0007.92,0003.60
2023-06-22 12:08:00,SystemResetWarning,0833.2,5.00,000.00,030.1,028.5,000.0,038.8,031.5,29.4,-000.2,0004.02,0008.09,0003.58
2023-06-22 12:09:00,SystemResetWarning,0833.2,4.99,000.00,030.1,028.5,000.0,038.8,031.4,29.2,-000.1,0003.98,0007.84,0003.57
2023-06-22 12:10:00,SystemResetWarning,0833.2,5.00,000.00,030.1,028.5,000.0,038.8,031.4,28.5,0000.4,0003.97,0007.80,0003.56
2023-06-22 12:11:00,SystemResetWarning,0833.2,5.00,000.00,030.1,028.5,000.0,038.8,031.4,28.9,0000.0,0003.93,0007.66,0003.55
2023-06-22 12:12:00,SystemResetWarning,0833.2,5.00,000.00,030.1,028.5,000.0,038.8,031.4,29.0,0000.0,0003.89,0007.56,0003.53
2023-06-22 12:13:00,SystemResetWarning,0833.2,5.01,000.00,030.1,028.5,000.0,038.8,031.4,28.9,0000.0,0003.83,0007.45,0003.48
2023-06-22 12:14:00,SystemResetWarning,0833.2,5.01,000.00,030.1,028.5,000.0,038.8,031.5,28.7,0000.0,0003.80,0007.44,0003.44
2023-06-22 12:15:00,SystemResetWarning,0833.2,5.00,000.00,030.1,028.5,000.0,038.8,031.5,28.6,0000.0,0003.76,0007.34,0003.40
2023-06-22 12:16:00,SystemResetWarning,0833.2,4.99,000.00,030.1,028.5,000.0,038.8,031.4,28.6,0000.0,0003.71,0007.13,0003.37
2023-06-22 12:17:00,SystemResetWarning,0833.2,5.00,000.00,030.1,028.5,000.0,038.8,031.4,28.7,0000.0,0003.67,0006.94,0003.33
2023-06-22 12:18:00,SystemResetWarning,0833.2,4.99,000.00,030.1,028.5,000.0,038.8,031.4,28.8,0000.0,0003.65,0006.95,0003.32
2023-06-22 12:19:00,SystemResetWarning,0833.2,5.00,000.00,030.1,028.5,000.0,038.8,031.4,28.9,0000.0,0003.63,0006.42,0003.31
2023-06-22 12:20:00,SystemResetWarning,0833.2,5.01,000.00,030.1,028.5,000.0,038.8,031.4,28.8,0000.0,0003.61,0005.33,0003.29
2023-06-22 12:21:00,SystemResetWarning,0833.2,5.01,000.00,030.1,028.5,000.0,038.8,031.4,29.1,0000.0,0003.60,0005.36,0003.26
2023-06-22 12:22:00,SystemResetWarning,0833.2,5.00,000.00,030.1,028.5,000.0,038.8,031.4,29.4,0000.0,0003.59,0005.35,0003.23
2023-06-22 12:23:00,SystemResetWarning,0833.2,5.00,000.00,030.1,028.5,000.0,038.8,031.5,29.2,0000.0,0003.61,0006.90,0003.23
2023-06-22 12:24:00,SystemResetWarning,0833.2,5.00,000.00,030.1,028.5,000.0,038.8,031.5,29.2,0000.0,0003.63,0007.13,0003.24
2023-06-22 12:25:00,SystemResetWarning,0833.2,5.00,000.00,030.1,028.5,000.0,038.8,031.5,29.2,0000.0,0003.61,0007.12,0003.24
2023-06-22 12:26:00,SystemResetWarning,0833.2,5.00,000.00,030.1,028.5,000.0,038.8,031.5,29.2,0000.0,0003.60,0006.98,0003.25
2023-06-22 12:27:00,SystemResetWarning,0833.2,5.01,000.00,030.1,028.5,000.0,038.8,031.5,28.7,0000.0,0003.62,0007.12,0003.25
2023-06-22 12:28:00,SystemResetWarning,0833.2,5.00,000.00,030.1,028.6,000.0,038.8,031.5,28.3,0000.0,0003.64,0007.34,0003.27
2023-06-22 12:29:00,SystemResetWarning,0833.2,5.01,000.00,030.1,028.6,000.0,038.8,031.5,28.4,0000.0,0003.66,0007.46,0003.27
2023-06-22 12:30:00,SystemResetWarning,0833.2,5.00,000.00,030.1,028.6,000.0,038.8,031.5,28.3,0000.0,0003.65,0007.34,0003.27
2023-06-22 12:31:00,SystemResetWarning,0833.2,5.01,000.00,030.1,028.6,000.0,038.8,031.5,28.2,0000.0,0003.63,0007.32,0003.27
2023-06-22 12:32:00,SystemResetWarning,0833.2,5.01,000.00,030.1,028.6,000.0,038.8,031.6,28.2,0000.0,0003.62,0007.34,0003.27
2023-06-22 12:33:00,SystemResetWarning,0833.1,5.00,000.00,030.1,028.6,000.0,038.8,031.5,28.1,0000.0,0003.61,0007.39,0003.27
2023-06-22 12:34:00,SystemResetWarning,0833.2,5.00,000.00,030.1,028.5,000.0,038.8,031.5,28.2,0000.0,0003.60,0005.92,0003.27
2023-06-22 12:35:00,SystemResetWarning,0833.2,5.00,000.00,030.2,028.5,000.0,038.8,031.6,28.6,0000.0,0003.59,0005.66,0003.27
2023-06-22 12:36:00,SystemResetWarning,0833.2,5.00,000.00,030.2,028.5,000.0,038.8,031.6,28.6,0000.0,0003.58,0005.58,0003.27
2023-06-22 12:37:00,SystemResetWarning,0833.1,4.99,000.00,030.2,028.6,000.0,038.8,031.6,28.3,0000.0,0003.60,0006.17,0003.27
2023-06-22 12:38:00,SystemResetWarning,0833.2,4.99,000.00,030.2,028.6,000.0,038.8,031.6,27.8,0000.0,0003.62,0006.87,0003.27
2023-06-22 12:39:00,SystemResetWarning,0833.1,5.00,000.00,030.2,028.6,000.0,038.8,031.6,27.5,0000.0,0003.62,0006.82,0003.27
2023-06-22 12:40:00,SystemResetWarning,0833.2,5.00,000.00,030.2,028.6,000.0,038.8,031.6,27.4,0000.0,0003.59,0006.55,0003.27
2023-06-22 12:41:00,SystemResetWarning,0833.3,5.00,000.00,030.2,028.6,000.0,038.8,031.7,27.8,0000.0,0003.58,0006.44,0003.26
2023-06-22 12:42:00,SystemResetWarning,0833.2,5.01,000.00,030.2,028.6,000.0,038.8,031.7,27.7,0000.0,0003.60,0006.53,0003.26
2023-06-22 12:43:00,SystemResetWarning,0832.9,5.00,000.00,030.2,028.6,000.0,038.8,031.7,27.2,0000.0,0003.59,0006.39,0003.26
2023-06-22 12:44:00,SystemResetWarning,0833.1,5.00,000.00,030.2,028.6,000.0,038.8,031.6,27.0,0000.0,0003.59,0006.34,0003.25
2023-06-22 12:45:00,SystemResetWarning,0832.9,5.00,000.00,030.2,028.6,000.0,038.8,031.6,27.3,0000.0,0003.57,0006.15,0003.24
2023-06-22 12:46:00,SystemResetWarning,0832.9,5.00,000.00,030.2,028.6,000.0,038.8,031.6,27.4,0000.0,0003.55,0006.13,0003.24
2023-06-22 12:47:00,SystemResetWarning,0833.2,5.00,000.00,030.2,028.6,000.0,038.9,031.6,27.6,0000.0,0003.54,0006.13,0003.23
2023-06-22 12:48:00,SystemResetWarning,0833.3,4.99,000.00,030.2,028.6,000.0,038.9,031.6,27.7,0000.0,0003.53,0005.98,0003.22
2023-06-22 12:49:00,SystemResetWarning,0832.8,5.00,000.00,030.2,028.7,000.0,038.9,031.6,27.9,0000.0,0003.49,0004.92,0003.21
2023-06-22 12:50:00,SystemResetWarning,0832.8,5.00,000.00,030.2,028.6,000.0,038.9,031.6,27.9,0000.0,0003.46,0004.66,0003.20
2023-06-22 12:51:00,SystemResetWarning,0832.8,5.00,000.00,030.2,028.6,000.0,038.9,031.6,28.2,0000.0,0003.45,0004.70,0003.19
2023-06-22 12:52:00,SystemResetWarning,0832.8,5.01,000.00,030.2,028.6,000.0,038.9,031.7,28.3,0000.0,0003.46,0004.88,0003.17
2023-06-22 12:53:00,SystemResetWarning,0832.7,5.00,000.00,030.2,028.6,000.0,038.9,031.7,28.4,0000.0,0003.43,0004.94,0003.16
2023-06-22 12:54:00,SystemResetWarning,0832.7,5.00,000.00,030.2,028.7,000.0,038.9,031.7,27.8,0000.0,0003.46,0005.13,0003.17
2023-06-22 12:55:00,SystemResetWarning,0832.7,5.00,000.00,030.2,028.7,000.0,038.9,031.7,27.3,0000.0,0003.47,0005.22,0003.17
2023-06-22 12:56:00,SystemResetWarning,0832.7,5.00,000.00,030.2,028.7,000.0,038.9,031.7,27.0,0000.0,0003.45,0005.24,0003.16
2023-06-22 12:57:00,SystemResetWarning,0832.8,5.00,000.00,030.3,028.7,000.0,038.9,031.7,27.8,0000.0,0003.45,0005.24,0003.16
2023-06-22 12:58:00,SystemResetWarning,0832.8,5.00,000.00,030.3,028.7,000.0,038.9,031.7,27.8,0000.0,0003.44,0005.20,0003.15
2023-06-22 12:59:00,SystemResetWarning,0832.8,5.00,000.00,030.3,028.7,000.0,038.9,031.7,27.7,0000.0,0003.44,0005.17,0003.16
